FW0810 Weather Reports


Display with metric or nautical units.
time (UTC)temp
F
wind
direction
speed
MPH
gust
MPH
rain 1hr
in
rain 24hr
in
rain mn
in
humidity
%
barometer
mb
20260504160227 69 266 1.0 7.0 0.00 0.00 0.00 52 1020.5
20260504150224 70 283 1.0 6.0 0.00 0.00 0.00 60 1020.6
20260504141214 71 180 0.0 3.0 0.00 0.00 0.00 53 1020.7
20260504140716 71 279 1.0 7.0 0.00 0.00 0.00 52 1020.7
20260504140214 71 293 1.0 7.0 0.00 0.00 0.00 51 1020.7
20260504130709 73 146 1.0 4.0 0.00 0.00 0.00 45 1021.2
20260504130204 73 134 1.0 6.0 0.00 0.00 0.00 45 1021.2
20260504120140 70 275 2.0 8.0 0.00 0.00 0.00 51 1021.7
20260504110637 72 154 2.0 6.0 0.00 0.00 0.00 46 1022.0
20260504110135 72 155 2.0 6.0 0.00 0.00 0.00 45 1022.0
20260504100132 71 101 0.0 4.0 0.00 0.00 0.00 46 1022.4
20260504081515 65 137 0.0 4.0 0.00 0.00 0.00 73 1022.7
20260504081007 64 127 0.0 2.0 0.00 0.00 0.00 74 1022.7
20260504080502 64 128 0.0 2.0 0.00 0.00 0.00 75 1022.8
20260504070347 58 91 2.0 5.0 0.00 0.00 0.00 78 1022.6
20260504050751 48 277 0.0 0.0 0.00 0.00 0.00 90 1022.3
20260504045249 47 277 0.0 0.0 0.00 0.00 0.00 90 1022.3
20260504044748 47 280 0.0 0.0 0.00 0.00 0.00 90 1022.2
20260504043746 46 280 0.0 0.0 0.00 0.00 0.00 90 1022.2
20260504043241 46 280 0.0 0.0 0.00 0.00 0.00 89 1022.1
20260504042740 46 280 0.0 0.0 0.00 0.00 0.00 89 1022.2
20260504042237 46 280 0.0 0.0 0.00 0.00 0.00 89 1022.2
20260504041735 46 280 0.0 0.0 0.00 0.00 0.00 89 1022.1
20260504040735 46 280 0.0 1.0 0.00 0.00 0.00 89 1022.0
20260504040235 46 280 0.0 3.0 0.00 0.00 0.00 89 1022.0
20260504035735 46 283 0.0 3.0 0.00 0.00 0.00 88 1022.0
20260504034740 46 271 0.0 2.0 0.00 0.00 0.00 88 1022.0
20260504034235 46 269 0.0 1.0 0.00 0.00 0.00 88 1022.0
20260504033735 46 269 0.0 0.0 0.00 0.00 0.00 89 1021.9
20260504033233 46 269 0.0 0.0 0.00 0.00 0.00 88 1022.0
20260504032734 46 269 0.0 2.0 0.00 0.00 0.00 88 1022.1
20260504032231 46 269 0.0 2.0 0.00 0.00 0.00 88 1022.2
20260504031731 46 271 0.0 0.0 0.00 0.00 0.00 88 1022.1
20260504031238 46 271 0.0 0.0 0.00 0.00 0.00 88 1022.0
20260504030720 46 271 0.0 0.0 0.00 0.00 0.00 87 1022.1
20260504030216 47 271 0.0 1.0 0.00 0.00 0.00 88 1022.1
20260504025211 47 271 0.0 2.0 0.00 0.00 0.00 88 1022.1
20260504024709 47 271 1.0 4.0 0.00 0.00 0.00 87 1022.1
20260504024209 47 274 0.0 4.0 0.00 0.00 0.00 87 1022.1
20260504023710 47 271 0.0 1.0 0.00 0.00 0.00 87 1022.2
20260504023207 47 271 0.0 0.0 0.00 0.00 0.00 87 1022.1
20260504022707 47 271 0.0 0.0 0.00 0.00 0.00 87 1022.1
20260504022207 47 271 0.0 0.0 0.00 0.00 0.00 87 1022.2
20260504021705 47 271 0.0 0.0 0.00 0.00 0.00 87 1022.3
20260504021203 47 271 0.0 0.0 0.00 0.00 0.00 87 1022.3
20260504020703 47 271 0.0 0.0 0.00 0.00 0.00 86 1022.3
20260504015659 48 271 0.0 0.0 0.00 0.00 0.00 86 1022.2
20260504015159 48 271 0.0 0.0 0.00 0.00 0.00 86 1022.2
20260504014659 48 271 0.0 0.0 0.00 0.00 0.00 86 1022.2
20260504014200 48 271 0.0 0.0 0.00 0.00 0.00 86 1022.2
20260504013703 48 271 0.0 0.0 0.00 0.00 0.00 85 1022.1
20260504013157 49 271 0.0 0.0 0.00 0.00 0.00 85 1022.2
20260504012658 49 271 0.0 0.0 0.00 0.00 0.00 85 1022.1
20260504012158 49 271 0.0 0.0 0.00 0.00 0.00 85 1022.1
20260504011657 49 271 0.0 0.0 0.00 0.00 0.00 85 1022.1
20260504011159 49 271 0.0 0.0 0.00 0.00 0.00 85 1022.1
20260504010657 49 271 0.0 0.0 0.00 0.00 0.00 85 1022.1
20260504010157 50 271 0.0 0.0 0.00 0.00 0.00 85 1022.2
20260504005657 50 271 0.0 0.0 0.00 0.00 0.00 85 1022.2
20260504005200 50 271 0.0 1.0 0.00 0.00 0.00 84 1022.2
20260504004657 50 271 0.0 1.0 0.00 0.00 0.00 84 1022.3
20260504004157 50 271 0.0 2.0 0.00 0.00 0.00 84 1022.4
20260504003657 50 271 0.0 2.0 0.00 0.00 0.00 84 1022.2
20260504002156 51 271 0.0 0.0 0.00 0.00 0.00 84 1022.3
20260504001659 51 271 0.0 3.0 0.00 0.00 0.00 83 1022.3
20260504001155 51 272 0.0 3.0 0.00 0.00 0.00 83 1022.3
20260504000654 51 269 0.0 2.0 0.00 0.00 0.00 83 1022.3
20260503235656 52 269 0.0 2.0 0.00 0.00 0.00 82 1022.4
20260503235155 52 268 0.0 2.0 0.00 0.00 0.00 83 1022.4
20260503234656 52 267 0.0 2.0 0.00 0.00 0.00 83 1022.3
20260503234156 52 269 0.0 1.0 0.00 0.00 0.00 83 1022.4
20260503233654 52 269 0.0 1.0 0.00 0.00 0.00 83 1022.5
20260503233152 52 269 0.0 3.0 0.00 0.00 0.00 83 1022.5
20260503232150 52 280 0.0 2.0 0.00 0.00 0.00 82 1022.6
20260503231644 52 280 0.0 3.0 0.00 0.00 0.00 82 1022.5
20260503231138 53 281 0.0 3.0 0.00 0.00 0.00 81 1022.6
20260503230634 53 271 0.0 0.0 0.00 0.00 0.00 81 1022.6
20260503230126 53 271 0.0 0.0 0.00 0.00 0.00 81 1022.6
20260503225114 54 270 0.0 3.0 0.00 0.00 0.00 80 1022.5
20260503224608 54 271 0.0 3.0 0.00 0.00 0.00 80 1022.6
20260503223558 55 264 0.0 0.0 0.00 0.00 0.00 80 1022.6
20260503223049 55 264 0.0 0.0 0.00 0.00 0.00 80 1022.6
20260503222557 55 264 0.0 0.0 0.00 0.00 0.00 80 1022.5
20260503222039 55 264 0.0 0.0 0.00 0.00 0.00 80 1022.5
20260503221031 55 264 0.0 0.0 0.00 0.00 0.00 79 1022.4
20260503220532 55 264 0.0 0.0 0.00 0.00 0.00 79 1022.4
20260503220030 56 277 0.0 0.0 0.00 0.00 0.00 78 1022.3
20260503215040 56 277 0.0 0.0 0.00 0.00 0.00 77 1022.2
20260503214527 56 277 0.0 0.0 0.00 0.00 0.00 77 1022.1
20260503214026 57 277 0.0 1.0 0.00 0.00 0.00 76 1022.2
20260503213524 57 277 0.0 1.0 0.00 0.00 0.00 76 1022.0
20260503213021 58 278 0.0 0.0 0.00 0.00 0.00 75 1022.0
20260503212519 58 279 0.0 0.0 0.00 0.00 0.00 75 1022.0
20260503212018 58 279 0.0 0.0 0.00 0.00 0.00 75 1022.0
20260503211517 58 279 0.0 2.0 0.00 0.00 0.00 74 1022.0
20260503211015 58 280 0.0 2.0 0.00 0.00 0.00 74 1022.0
20260503210515 59 283 0.0 1.0 0.00 0.00 0.00 73 1022.0
20260503210015 59 276 0.0 1.0 0.00 0.00 0.00 72 1021.9
20260503205514 59 274 0.0 2.0 0.00 0.00 0.00 71 1021.9
20260503205015 60 270 0.0 2.0 0.00 0.00 0.00 71 1021.9
20260503203513 60 284 1.0 5.0 0.00 0.00 0.00 71 1021.7
20260503203013 61 297 1.0 5.0 0.00 0.00 0.00 70 1021.7
20260503202509 61 281 0.0 5.0 0.00 0.00 0.00 69 1021.6
20260503201507 62 271 0.0 1.0 0.00 0.00 0.00 68 1021.4
20260503201007 62 271 0.0 4.0 0.00 0.00 0.00 68 1021.3
20260503200506 62 271 0.0 4.0 0.00 0.00 0.00 68 1021.3
20260503200009 62 271 0.0 3.0 0.00 0.00 0.00 68 1021.2
20260503195507 62 271 0.0 0.0 0.00 0.00 0.00 67 1021.2
20260503194504 63 271 0.0 3.0 0.00 0.00 0.00 66 1021.2
20260503193003 64 246 0.0 2.0 0.00 0.00 0.00 64 1021.1
20260503192503 65 273 0.0 3.0 0.00 0.00 0.00 63 1021.0
20260503192003 65 274 0.0 3.0 0.00 0.00 0.00 61 1021.0
20260503191506 66 320 0.0 2.0 0.00 0.00 0.00 60 1020.9
20260503191003 66 264 0.0 2.0 0.00 0.00 0.00 60 1020.9
20260503190504 66 310 0.0 2.0 0.00 0.00 0.00 59 1020.8
20260503190000 66 342 0.0 1.0 0.00 0.00 0.00 59 1020.8
20260503185502 67 281 0.0 0.0 0.00 0.00 0.00 59 1020.8
20260503185001 67 281 0.0 0.0 0.00 0.00 0.00 59 1020.7
20260503184502 67 281 0.0 0.0 0.00 0.00 0.00 59 1020.6
20260503184000 67 304 0.0 0.0 0.00 0.00 0.00 58 1020.6
20260503183502 67 306 0.0 0.0 0.00 0.00 0.00 58 1020.5
20260503183001 68 307 0.0 1.0 0.00 0.00 0.00 58 1020.6
20260503182503 68 279 0.0 1.0 0.00 0.00 0.00 58 1020.5
20260503182001 68 279 0.0 3.0 0.00 0.00 0.00 58 1020.5
20260503181459 68 281 0.0 3.0 0.00 0.00 0.00 58 1020.5
20260503180457 69 297 0.0 0.0 0.00 0.00 0.00 56 1020.4
20260503175956 70 297 0.0 1.0 0.00 0.00 0.00 55 1020.4
20260503175454 70 298 0.0 1.0 0.00 0.00 0.00 53 1020.4
20260503174451 71 303 0.0 1.0 0.00 0.00 0.00 51 1020.4
20260503173948 72 316 0.0 1.0 0.00 0.00 0.00 50 1020.3
20260503173447 73 342 0.0 1.0 0.00 0.00 0.00 48 1020.3
20260503171943 74 300 0.0 0.0 0.00 0.00 0.00 45 1020.2
20260503171441 75 305 0.0 0.0 0.00 0.00 0.00 43 1020.3
20260503170439 76 294 0.0 0.0 0.00 0.00 0.00 40 1020.2